This is the latest recevied weather packets stored in our database for station/object W0AVQ. If no packets are shown the sender has not sent any weather packets the latest 10 day(s).
| Time | Temp. | Humidity | Pressure | Rain* | Wind** | Luminosity | Snow |
|---|---|---|---|---|---|---|---|
| 1777488189 | 20° C | 62% | 1017.6 hPa | 0 mm | - | 133 W/m² | - |
| 1777487887 | 19.44° C | 61% | 1017.4 hPa | 0 mm | - | 137 W/m² | - |
| 1777487585 | 19.44° C | 62% | 1017.6 hPa | 0 mm | - | 125 W/m² | - |
| 1777487281 | 19.44° C | 62% | 1017.5 hPa | 0 mm | - | 149 W/m² | - |
| 1777486978 | 19.44° C | 66% | 1017.4 hPa | 0 mm | - | 171 W/m² | - |
| 1777486674 | 19.44° C | 63% | 1017.5 hPa | 0 mm | - | 186 W/m² | - |
| 1777486372 | 18.89° C | 63% | 1017.4 hPa | 0 mm | - | 178 W/m² | - |
| 1777486070 | 19.44° C | 63% | 1017.4 hPa | 0 mm | - | 167 W/m² | - |
| 1777485765 | 19.44° C | 64% | 1017.7 hPa | 0 mm | - | 155 W/m² | - |
| 1777485461 | 18.89° C | 62% | 1017.7 hPa | 0 mm | - | 144 W/m² | - |
| 1777485158 | 18.89° C | 63% | 1017.7 hPa | 0 mm | - | 137 W/m² | - |
| 1777484854 | 19.44° C | 63% | 1018 hPa | 0 mm | - | 108 W/m² | - |
| 1777484552 | 18.89° C | 64% | 1017.7 hPa | 0 mm | - | 114 W/m² | - |
| 1777484249 | 18.89° C | 64% | 1018.1 hPa | 0 mm | - | 139 W/m² | - |
| 1777483944 | 19.44° C | 64% | 1018 hPa | 0 mm | - | 184 W/m² | - |
| 1777483641 | 18.89° C | 66% | 1018 hPa | 0 mm | - | 232 W/m² | - |
| 1777483336 | 18.89° C | 67% | 1018.2 hPa | 0 mm | - | 416 W/m² | - |
| 1777483032 | 18.89° C | 68% | 1018.1 hPa | 0 mm | - | 461 W/m² | - |
| 1777482729 | 18.33° C | 66% | 1018.1 hPa | 0 mm | - | 212 W/m² | - |
| 1777482425 | 18.89° C | 66% | 1018.2 hPa | 0 mm | - | 124 W/m² | - |
| 1777482123 | 18.33° C | 67% | 1018.1 hPa | 0 mm | - | 611 W/m² | - |
| 1777481820 | 18.89° C | 69% | 1018.3 hPa | 0 mm | - | 610 W/m² | - |
| 1777481517 | 18.89° C | 69% | 1018 hPa | 0 mm | - | 599 W/m² | - |
| 1777481214 | 18.33° C | 71% | 1018 hPa | 0 mm | - | 637 W/m² | - |
| 1777480910 | 18.89° C | 69% | 1017.9 hPa | 0 mm | - | 239 W/m² | - |
* Rain latest hour (hover to see other rain measurements)
** Current wind speed in m/s (hover to see current wind gust speed)